Weather History for Huntsville, TX

Change the Weather History Date:

Tuesday, March 11, 2014

  Actual Average (KCXO) Record (KCXO)
Temperature  
Mean Temperature 65 °F -  
Max Temperature 75 °F 67 °F 82 °F (2006)
Min Temperature 55 °F 47 °F 28 °F (1998)
Growing Degree Days 15 (Base 50)    
Moisture  
Dew Point 56 °F    
Average Humidity 79    
Maximum Humidity 96    
Minimum Humidity 53    
Precipitation  
Precipitation 0.00 in - - ()
Sea Level Pressure  
Sea Level Pressure 29.76 in    
Wind  
Wind Speed 6 mph (SSW)    
Max Wind Speed 13 mph    
Max Gust Speed 20 mph    
Visibility 8 miles    
Events      
Averages and records for this station are not official NWS values.
T = Trace of Precipitation, MM = Missing Value Source: NWS Daily Summary

Daily Weather History Graph

Daily Weather History Graph

Search for Another Location

Airport:

Trip Planner

Search our weather history database for the weather conditions in past years. The results will help you decide how hot, cold, wet, or windy it might be!

Date:

Astronomy

Mar. 11, 2014 Rise Set
Actual Time 7:37 AM CDT 7:27 PM CDT
Civil Twilight 7:13 AM CDT 7:52 PM CDT
Nautical Twilight 6:45 AM CDT 8:19 PM CDT
Astronomical Twilight 6:17 AM CDT 8:48 PM CDT
Moon 3:18 PM CDT (3/11) 4:16 AM CDT (3/11)
Length of Visible Light 12h 38m
Length of Day
11h 50m
Waxing Gibbous, 78% of the Moon is Illuminated
Mar 11
Waxing Gibbous
Mar 16
Full
Mar 23
Last Quarter
Mar 30
New
Apr 7
First Quarter

Hourly Weather History & Observations

Time (CDT) Temp. Dew Point Humidity Pressure Visibility Wind Dir Wind Speed Gust Speed Precip Events Conditions
12:53 AM 59.0 °F 54.0 °F 83% 29.91 in 9.0 mi South 5.8 mph - N/A   Mostly Cloudy
1:53 AM 59.0 °F 55.0 °F 87% 29.90 in 8.0 mi SSW 5.8 mph - N/A   Overcast
2:53 AM 59.0 °F 55.0 °F 87% 29.88 in 8.0 mi South 5.8 mph - N/A   Overcast
3:53 AM 57.9 °F 55.0 °F 90% 29.85 in 7.0 mi South 3.5 mph - N/A   Overcast
4:15 AM 57.9 °F 55.0 °F 90% 29.85 in 7.0 mi South 4.6 mph - N/A   Overcast
4:27 AM 57.9 °F 55.0 °F 90% 29.84 in 7.0 mi South 3.5 mph - N/A   Mostly Cloudy
4:37 AM 57.0 °F 55.0 °F 93% 29.83 in 7.0 mi SSW 3.5 mph - N/A   Scattered Clouds
4:53 AM 57.9 °F 55.0 °F 90% 29.82 in 6.0 mi Calm Calm - N/A   Mostly Cloudy
5:18 AM 57.0 °F 54.0 °F 89% 29.81 in 6.0 mi South 3.5 mph - N/A   Scattered Clouds
5:53 AM 55.9 °F 54.0 °F 93% 29.80 in 5.0 mi Calm Calm - N/A   Mostly Cloudy
6:53 AM 57.0 °F 55.0 °F 93% 29.78 in 5.0 mi South 4.6 mph - N/A   Mostly Cloudy
7:53 AM 55.9 °F 54.0 °F 93% 29.78 in 3.0 mi South 5.8 mph - N/A   Clear
8:53 AM 57.0 °F 55.9 °F 96% 29.79 in 3.0 mi SW 3.5 mph - N/A   Partly Cloudy
9:08 AM 57.9 °F 55.9 °F 93% 29.81 in 3.0 mi South 4.6 mph - N/A   Mostly Cloudy
9:12 AM 57.9 °F 55.9 °F 93% 29.81 in 3.0 mi South 4.6 mph - N/A   Mostly Cloudy
9:53 AM 57.9 °F 55.9 °F 93% 29.80 in 4.0 mi SSW 6.9 mph - N/A   Overcast
10:36 AM 60.1 °F 55.9 °F 86% 29.80 in 8.0 mi SSW 10.4 mph - N/A   Overcast
10:53 AM 60.1 °F 55.9 °F 86% 29.78 in 9.0 mi WSW 10.4 mph - N/A   Overcast
11:18 AM 61.0 °F 55.9 °F 83% 29.79 in 9.0 mi SSW 10.4 mph - N/A   Overcast
11:53 AM 63.0 °F 57.0 °F 81% 29.79 in 10.0 mi South 9.2 mph - N/A   Overcast
12:24 PM 64.0 °F 55.9 °F 75% 29.79 in 10.0 mi SSW 6.9 mph - N/A   Overcast
12:53 PM 66.0 °F 55.9 °F 70% 29.76 in 10.0 mi SW 8.1 mph - N/A   Mostly Cloudy
1:19 PM 68.0 °F 55.9 °F 65% 29.74 in 10.0 mi South 9.2 mph - N/A   Scattered Clouds
1:53 PM 70.0 °F 55.9 °F 61% 29.72 in 10.0 mi SSW 12.7 mph - N/A   Scattered Clouds
2:07 PM 70.0 °F 55.9 °F 61% 29.72 in 10.0 mi SSW 9.2 mph - N/A   Mostly Cloudy
2:16 PM 71.1 °F 55.9 °F 59% 29.71 in 10.0 mi SSW 11.5 mph 17.3 mph N/A   Scattered Clouds
2:53 PM 73.0 °F 57.0 °F 57% 29.67 in 10.0 mi SW 10.4 mph - N/A   Clear
3:53 PM 75.0 °F 57.0 °F 53% 29.64 in 10.0 mi SSW 6.9 mph - N/A   Clear
4:53 PM 75.0 °F 57.0 °F 53% 29.62 in 10.0 mi South 12.7 mph 19.6 mph N/A   Clear
5:53 PM 73.9 °F 57.0 °F 55% 29.62 in 10.0 mi South 10.4 mph - N/A   Clear
6:53 PM 72.0 °F 55.9 °F 57% 29.63 in 10.0 mi South 9.2 mph - N/A   Clear
7:53 PM 68.0 °F 55.9 °F 65% 29.63 in 10.0 mi South 10.4 mph - N/A   Clear
8:53 PM 64.9 °F 57.0 °F 75% 29.65 in 10.0 mi South 8.1 mph - N/A   Clear
9:53 PM 64.0 °F 57.0 °F 78% 29.66 in 10.0 mi South 10.4 mph - N/A   Clear
10:53 PM 63.0 °F 57.9 °F 84% 29.68 in 10.0 mi SSW 9.2 mph - N/A   Clear
11:53 PM 62.1 °F 57.9 °F 86% 29.69 in 10.0 mi SSW 9.2 mph - N/A   Clear